Location: Budapest
(47.4979°N, 19.0402°E)
Time: 15:58:15
(UTC+02:00)

ISS - Pass Details

Date: 11 October 2017
Orbit: 401 x 408 km, 51.6° (Epoch: 22 October)

Event Time Altitude Azimuth Distance (km) Brightness Sun altitude
Rises 20:15:18 0° 291° (WNW) 2,328 1.5 -22.9°
Reaches altitude 10° 20:17:32 10° 280° (W) 1,466 0.1 -23.3°
Enters shadow 20:19:56 28° 237° (WSW) 794 -2.0 -23.7°
